SCP
2 2 2 2 2 2 2 2 2 2 2 2 1 1 1 1 1 2 2 2 2 2 2 2 1 1 1 1 1 1 1 1 1 1 1 1 1 1 1 1 1 0 0
2 2 2 2 2 2 2 2 2 2 2 2 2 1 1 1 1 2 2 2 2 2 2 2 2 1 1 1 1 1 1 1 1 1 1 1 1 1 1 1 1 1 0
2 2 2 2 2 2 2 2 2 2 2 1 1 1 2 2 2 2 2 2 2 2 2 2 2 2 1 1 1 1 1 1 1 1 1 1 1 1 1 1 1 1 1
2 2 2 2 2 2 2 2 1 1 1 1 1 1 1 2 2 2 2 2 2 2 2 2 2 2 2 1 1 1 1 1 1 1 1 1 1 1 1 1 1 1 1
2 2 2 2 2 2 1 1 1 1 1 1 1 1 1 1 1 1 1 2 2 2 2 2 2 2 2 2 2 2 2 1 1 1 1 1 1 1 1 1 1 1 1
1 1 1 1 1 1 1 1 1 1 1 1 1 1 1 1 1 1 1 1 1 2 2 2 2 2 2 2 2 2 2 2 1 1 1 1 1 1 1 1 1 1 1
1 1 1 1 1 1 1 1 1 1 1 1 1 1 1 1 1 1 1 1 1 1 1 1 2 2 2 2 2 2 2 2 2 1 1 1 1 1 1 1 1 1 1
1 1 1 1 1 1 1 1 1 1 1 1 1 1 1 1 1 1 1 1 1 1 1 1 1 2 2 2 1 1 1 1 1 1 1 1 1 1 1 1 1 1 1
1 1 1 1 1 1 1 1 1 1 1 1 1 1 1 1 1 1 1 1 1 1 1 1 1 1 1 1 1 1 1 1 1 1 1 1 1 1 1 1 1 1 1
1 1 1 1 1 1 0 0 1 1 0 0 1 1 1 1 1 1 1 1 1 1 1 1 1 1 1 1 1 1 1 1 1 1 1 1 1 1 1 1 1 1 1
1 1 1 1 1 1 1 0 0 0 0 0 0 0 1 1 1 0 0 1 1 1 1 1 1 1 1 1 1 1 1 1 1 1 1 1 1 1 1 1 1 1 1
2 1 1 1 1 1 1 1 0 0 0 0 0 0 0 0 0 0 0 0 0 1 1 1 1 1 1 1 1 1 0 0 0 0 1 1 1 1 1 1 1 1 1
2 2 2 2 1 1 1 1 1 0 0 0 0 0 0 0 0 0 0 0 0 0 1 1 1 1 1 1 1 0 0 0 0 0 0 0 0 0 0 0 1 1 0
2 2 2 2 2 1 1 1 1 1 0 0 0 0 0 0 0 0 0 0 0 0 0 1 1 1 1 1 1 0 0 0 0 0 0 0 0 0 0 0 0 0 0
2 2 2 2 2 1 1 1 1 1 1 0 0 0 0 0 0 0 0 0 0 0 0 0 1 1 1 1 0 0 0 0 0 0 0 0 0 0 0 0 0 0 0
2 2 2 2 2 2 1 1 1 1 1 1 0 0 0 0 0 0 0 0 0 0 0 0 0 1 1 0 0 0 0 0 0 0 0 0 0 0 0 0 0 0 0
2 2 2 2 1 1 1 1 1 1 1 0 0 0 0 0 0 0 0 0 0 0 0 0 0 0 0 0 0 0 0 0 0 0 0 0 0 0 0 0 0 0 0
1 1 1 1 1 1 1 1 1 1 1 0 0 0 0 0 0 0 0 0 0 0 0 0 0 0 0 0 0 0 0 0 0 0 0 0 0 0 0 0 0 0 0
1 1 1 1 1 1 1 1 1 1 1 0 0 0 0 0 0 0 0 0 0 0 0 0 0 0 0 0 0 0 0 0 0 0 0 0 0 0 0 0 0 0 0
0 1 1 1 1 1 1 1 1 1 0 0 0 0 0 0 0 0 0 0 0 0 0 0 0 0 0 0 0 0 0 0 0 0 0 0 0 0 0 0 0 0 0
0 0 0 0 0 0 0 0 1 0 0 0 0 0 0 0 0 0 0 0 0 0 0 0 0 0 0 0 0 0 0 0 0 0 0 0 0 0 0 0 0 0 0
0 0 0 0 0 0 0 0 0 0 0 0 0 0 0 0 0 0 0 0 0 0 0 0 0 0 0 0 0 0 0 0 0 0 0 0 0 0 0 0 0 0 0
0 0 0 0 0 0 0 0 0 0 0 0 0 0 0 0 0 0 0 0 0 0 0 0 0 0 0 0 0 0 0 0 0 0 0 0 0 0 0 0 0 0 0
0 0 0 0 0 0 0 0 0 0 0 0 0 0 0 0 0 0 0 0 0 0 0 0 0 0 0 0 0 0 0 0 0 0 0 0 0 0 0 0 0 0 0
0 0 0 0 0 0 0 0 0 0 0 0 0 0 0 0 0 0 0 0 0 0 0 0 0 0 0 0 0 0 0 0 0 0 0 0 0 0 0 0 0 0 -0
0 0 0 0 0 0 0 0 0 0 0 0 0 0 0 0 0 0 0 0 0 0 0 0 0 0 0 0 0 0 0 0 0 0 0 0 0 0 0 0 0 0 -0
Wind_Speed
3 3 2 2 3 3 3 4 4 5 5 6 6 7 6 7 6 5 4 12 15 16 16 16 16 17 17 17 17 17 17 17 17 17 18 19 18 18 17 17 16 15 15
2 2 2 2 3 4 4 3 4 4 4 4 5 6 5 5 5 5 4 8 15 16 16 17 17 18 18 18 17 17 17 18 17 17 18 19 19 18 18 18 18 17 16
2 2 3 3 3 4 4 4 5 4 5 5 5 6 5 5 5 5 5 4 7 14 17 17 17 18 19 19 19 18 17 18 17 18 18 18 19 19 19 18 18 18 17
1 2 3 3 3 3 3 4 4 4 4 5 5 5 5 5 6 6 6 6 5 6 11 17 18 19 19 20 19 19 18 18 18 18 18 18 19 19 19 19 19 18 18
2 2 2 3 3 3 3 5 4 3 4 5 5 6 6 6 6 8 8 8 7 6 6 10 18 19 20 20 20 19 18 18 18 18 18 19 19 19 19 19 19 18 18
2 2 3 3 3 3 3 3 4 4 4 4 7 7 5 5 6 7 9 9 8 9 9 9 8 12 19 20 19 19 19 19 18 18 19 19 19 19 18 18 19 18 18
1 2 3 2 3 3 3 4 4 5 4 4 4 5 6 8 9 8 8 8 9 9 8 8 7 6 7 16 18 19 20 19 18 18 18 18 18 17 17 17 17 18 18
1 3 2 3 3 3 5 4 3 3 4 3 3 3 4 4 6 8 6 7 9 7 8 10 7 7 6 5 9 18 20 19 18 17 17 17 16 16 16 17 16 16 17
2 2 2 2 3 4 3 4 4 5 4 4 4 4 3 3 3 3 5 6 6 5 6 5 6 6 7 6 6 13 18 17 17 17 17 16 15 14 15 15 15 15 16
3 3 3 3 2 3 4 5 3 4 4 5 4 4 5 4 4 4 3 5 6 6 6 6 5 5 6 4 6 8 11 13 14 15 14 14 13 13 14 15 15 15 15
4 4 4 3 2 3 4 3 4 4 4 5 5 4 5 5 6 6 6 4 4 4 4 5 4 4 5 4 3 5 9 11 12 12 12 12 12 13 13 14 14 15 15
4 5 4 3 3 3 3 3 4 5 5 5 4 5 5 5 5 5 7 6 5 4 4 4 4 4 4 3 4 6 7 8 9 9 9 9 10 11 11 12 12 13 13
4 4 3 2 3 4 4 4 4 5 5 6 5 5 5 6 5 6 6 7 6 5 4 4 4 4 3 2 4 7 7 8 8 8 7 7 7 8 9 9 8 8 8
5 3 2 3 4 5 5 4 4 5 5 5 7 6 5 6 6 6 6 6 6 5 5 4 2 3 2 2 5 7 5 8 8 8 8 8 8 8 8 8 7 7 6
6 6 5 4 5 5 5 5 5 6 5 5 6 6 5 5 5 5 5 6 6 6 6 3 1 1 2 2 5 5 6 8 10 9 9 10 10 11 11 11 11 10 10
7 7 7 7 6 6 6 6 5 6 5 5 4 5 5 5 5 5 5 5 6 6 5 3 1 1 2 3 5 5 7 11 11 11 11 12 13 13 13 13 13 13 12
8 7 7 7 8 8 7 6 7 7 6 5 5 6 5 6 5 5 5 5 5 5 6 3 1 2 3 4 5 6 7 7 7 12 13 13 14 14 14 14 13 13 13
7 8 8 8 9 9 8 7 8 7 5 5 5 5 5 5 6 5 5 6 5 5 5 4 2 2 3 5 7 7 6 7 7 12 14 14 14 14 14 14 13 13 13
7 8 8 8 9 9 8 8 8 7 6 5 5 4 4 5 5 4 5 4 4 4 3 4 3 2 3 4 7 7 8 7 8 10 13 13 14 14 14 14 13 13 12
8 8 8 8 9 10 9 8 8 7 6 5 4 3 3 4 4 4 4 3 2 2 3 4 5 4 3 5 6 7 7 5 7 8 9 10 12 13 13 13 13 13 12
10 8 8 8 9 10 9 8 7 8 6 5 4 2 2 1 2 3 3 2 1 3 3 5 5 4 4 5 5 5 7 6 6 6 7 7 7 7 7 10 11 11 10
8 7 7 9 10 10 9 9 8 7 5 5 4 3 3 2 1 0 0 0 2 4 4 5 5 7 6 6 5 7 7 7 5 4 6 6 6 6 5 5 9 10 9
8 8 8 9 9 9 10 10 9 7 6 5 4 4 4 3 3 3 4 4 4 3 4 4 6 6 7 7 7 7 6 6 5 6 5 6 6 6 5 7 11 10 9
8 8 8 9 9 10 9 9 9 8 6 5 5 4 3 4 3 4 4 5 4 4 4 4 5 5 6 6 6 7 7 6 5 4 5 6 6 6 7 5 8 9 9
8 9 9 9 9 8 8 8 8 6 6 6 5 5 5 5 5 6 6 6 6 5 8 10 10 9 11 10 7 6 6 6 5 3 2 4 6 6 5 4 5 8 8
9 10 10 9 9 8 6 7 8 5 6 5 4 4 6 7 7 6 6 7 7 6 7 8 8 9 9 9 8 5 5 5 5 3 2 3 5 5 4 3 4 5 4
Wind_Direction
228 248 271 285 280 269 242 228 241 240 234 242 249 244 238 236 239 235 196 192 195 201 206 210 214 220 223 224 225 224 223 223 220 218 216 215 216 215 213 212 210 208 207
251 283 284 278 278 285 290 286 283 276 266 253 256 263 265 262 250 242 226 202 205 208 212 215 217 221 224 225 225 225 224 223 221 218 217 216 215 214 213 213 211 209 207
265 271 276 275 272 280 288 282 282 280 272 267 256 254 255 254 262 263 252 231 215 215 218 221 223 223 224 225 224 224 223 222 221 218 217 216 215 214 213 213 212 209 207
305 297 277 273 280 279 273 270 262 265 268 270 267 261 258 254 252 254 256 250 239 234 222 223 227 226 226 226 225 224 223 222 221 219 217 216 215 214 213 213 212 210 207
306 282 279 281 287 280 275 277 277 263 264 263 264 255 244 243 244 249 249 250 243 238 234 226 224 226 228 227 225 225 224 222 220 218 217 216 216 214 213 212 211 210 208
351 350 293 297 302 282 276 278 289 283 267 263 271 271 259 248 239 241 243 245 240 237 233 235 222 224 227 227 224 224 225 224 221 220 218 217 216 214 212 211 210 209 209
10 312 298 322 297 294 302 290 286 288 282 267 267 273 262 246 237 235 236 239 239 238 239 237 227 222 220 225 228 227 226 225 223 220 217 215 215 212 210 210 210 210 209
345 291 2 316 320 316 290 290 299 289 285 282 270 280 278 261 243 240 232 235 240 240 238 237 234 230 224 209 221 229 228 226 225 220 216 212 211 210 209 209 210 210 210
244 274 291 290 309 297 303 320 290 291 296 293 259 254 270 275 307 266 249 246 246 241 242 240 240 239 232 223 213 219 222 220 220 220 215 210 207 207 207 208 210 213 213
233 235 241 255 272 288 293 291 336 324 300 293 286 262 258 273 282 287 269 253 247 244 239 247 250 238 230 227 227 214 211 213 214 216 213 208 205 206 207 207 209 213 213
227 228 223 227 249 270 287 306 306 295 292 288 293 298 292 280 257 261 278 276 263 249 239 238 241 245 232 219 216 225 211 203 207 211 208 207 206 205 205 206 211 216 215
235 225 223 209 235 258 278 281 279 280 275 281 283 282 281 278 275 266 269 274 271 264 248 237 237 240 229 196 186 189 188 186 192 194 194 196 198 198 199 201 209 214 215
270 241 231 207 235 248 257 262 265 269 271 271 269 266 268 270 273 274 271 273 276 277 260 243 231 229 223 165 150 157 156 158 166 171 174 180 186 186 186 187 193 202 208
294 295 253 234 237 245 255 256 266 266 264 266 272 269 267 267 263 263 265 271 275 273 262 247 228 215 196 153 150 149 138 140 142 142 140 137 137 137 134 133 133 136 138
301 305 294 270 256 251 251 253 256 262 267 266 270 273 269 271 268 263 260 252 254 265 265 250 234 209 172 136 152 141 131 132 132 129 128 127 123 120 117 114 112 108 108
307 303 296 286 272 260 250 246 254 257 257 262 266 273 276 276 272 267 260 253 242 247 260 251 232 184 152 145 139 128 121 124 119 121 120 117 115 114 112 110 108 106 102
303 296 289 284 277 269 258 249 252 258 260 267 275 277 279 281 279 275 269 263 248 236 246 253 207 159 144 137 125 114 124 119 116 116 115 112 111 110 109 107 106 104 102
300 298 292 285 278 273 261 254 255 260 262 268 275 282 289 290 283 277 268 262 253 237 224 219 192 164 148 141 136 133 129 121 117 116 114 114 112 110 108 106 103 100 99
291 295 294 289 283 278 268 257 251 254 256 263 270 280 291 294 290 286 278 268 254 235 202 182 176 159 142 137 133 126 118 115 118 118 112 110 112 112 110 108 105 103 101
284 284 288 290 286 280 272 262 255 246 245 250 256 271 290 295 291 291 285 270 234 197 177 164 158 148 132 130 131 129 122 123 124 128 113 112 111 108 110 110 109 108 106
284 286 291 289 286 280 270 265 260 251 237 239 241 241 262 289 311 295 287 276 192 162 156 150 147 140 137 140 139 136 130 124 112 121 122 126 123 117 115 114 111 114 113
280 283 286 286 284 283 285 274 258 259 242 228 226 219 199 191 164 108 45 215 178 163 155 151 152 150 146 139 137 140 135 133 128 140 133 138 139 131 129 117 125 124 121
287 286 286 284 281 279 274 262 253 257 247 227 213 212 217 176 171 141 112 100 85 107 140 145 144 143 144 148 144 136 138 139 134 152 141 133 132 121 119 124 137 136 133
286 285 283 283 281 279 272 253 249 252 243 227 209 198 182 164 173 156 137 114 95 84 115 130 129 126 131 138 137 135 133 117 104 119 130 128 131 123 120 129 153 152 151
284 281 279 275 276 276 262 243 237 248 237 227 212 187 167 156 154 158 142 128 115 98 87 96 102 107 109 110 115 122 126 129 128 125 119 118 128 126 128 140 168 177 173
280 279 276 274 274 272 254 233 219 239 236 222 205 170 164 152 152 157 150 139 131 122 114 107 103 108 112 111 113 124 137 141 136 122 118 111 135 134 130 144 157 170 188